Regional Weather Roundup
Issued by NWS

Home | Current Version | Previous Version | Text Only | Print | Product List | Glossary Off
Versions: 1 2 3 4 5 6 7 8 9 10 11 12 13 14 15 16 17 18 19 20 21 22 23 24 25 26 27 28 29 30 31 32 33 34 35 36 37 38 39 40 41 42 43 44 45 46 47 48 49 50

000
ASUS43 KFSD 230402
RWRSD

WEATHER ROUNDUP FOR SOUTH DAKOTA
NATIONAL WEATHER SERVICE SIOUX FALLS SD
1000 PM CST SUN JAN 22 2017

NOTE: "FAIR" INDICATES FEW OR NO CLOUDS BELOW 12,000 FEET WITH NO
SIGNIFICANT WEATHER AND/OR OBSTRUCTIONS TO VISIBILITY.


SDZ001>005-009-010-012>017-230500-
NORTHWEST AND NORTH CENTRAL SOUTH DAKOTA

CITY           SKY/WX    TMP DP  RH WIND       PRES   REMARKS
BUFFALO          N/A     20  17  88 CALM      29.74S
FAITH            N/A     20  20 100 N6        29.84S WCI  12
MOBRIDGE       CLOUDY    30  24  78 NW8       29.82F WCI  22
$$

SDZ012>016-024>037-041>051-057-063-072>074-230500-
SOUTHWEST AND SOUTH CENTRAL SOUTH DAKOTA

CITY           SKY/WX    TMP DP  RH WIND       PRES   REMARKS
RAPID CTY ARPT CLEAR     26  20  77 SE3       29.81F
PIERRE         CLOUDY    28  24  85 W6        29.86F WCI  22
CUSTER         CLEAR     24  14  65 W5        29.75F WCI  18
ELLSWORTH AFB  CLEAR     28  22  79 S3        29.80F
PHILIP         CLOUDY    14  13  95 SW3       29.88S
PINE RIDGE     CLEAR     18  15  88 E5        29.83F WCI  11
SPEARFISH      FAIR      27  18  69 CALM      29.78F
WINNER         CLOUDY    25  22  88 W6        29.89F WCI  18
$$

SDZ004>011-016>023-039-040-230500-
NORTHEAST SOUTH DAKOTA

CITY           SKY/WX    TMP DP  RH WIND       PRES   REMARKS
ABERDEEN       CLOUDY    31  26  82 NW9       29.84F WCI  23
WATERTOWN      CLOUDY    30  28  92 NW9       29.80F WCI  22
BROOKINGS      CLOUDY    29  28  96 NW12      29.82S WCI  19
SISSETON         N/A     33  32  96 N9        29.80S WCI  25
$$

SDZ017-020-022-023-036>040-048>070-230500-
SOUTHEAST SOUTH DAKOTA

CITY           SKY/WX    TMP DP  RH WIND       PRES   REMARKS
SIOUX FALLS    FRZ DRZL  31  29  92 NW12      29.85S WCI  22
HURON          CLOUDY    30  28  92 NW8       29.87R WCI  22
CHAMBERLAIN    CLOUDY    31  28  89 NW7       29.89S WCI  25
MITCHELL       CLOUDY    32  29  88 NW10      29.89S WCI  24
YANKTON        CLOUDY    30  25  80 NW9       29.89R WCI  22
$$

ABBREVIATIONS USED IN REMARKS
   TC - TEMPERATURE IN CELSIUS
  WCI - WIND CHILL INDEX
   HX - HEAT INDEX
  VSB - VISIBILITY




USA.gov is the U.S. government's official web portal to all federal, state and local government web resources and services.